Regional Weather Roundup
Issued by NWS

Home | Current Version | Previous Version | Graphics & Text | Print | Product List | Glossary On
Versions: 1 2 3 4 5 6 7 8 9 10 11 12 13 14 15 16 17 18 19 20 21 22 23 24 25 26 27 28 29 30 31 32 33 34 35 36 37 38 39 40 41 42 43 44 45 46 47 48 49 50
000
ASUS45 KTFX 241510
RWRMT
MONTANA REGIONAL WEATHER ROUNDUP
NATIONAL WEATHER SERVICE GREAT FALLS MT
900 AM MDT TUE MAY 24 2016

NOTE: "FAIR" INDICATES FEW OR NO CLOUDS BELOW 12000 FEET WITH NO
SIGNIFICANT WEATHER AND/OR OBSTRUCTIONS TO VISIBILITY.

MTZ001>007-043-241600-
WEST OF THE DIVIDE

CITY           SKY/WX    TMP DP  RH WIND       PRES   REMARKS
KALISPELL      CLOUDY    47  44  90 CALM      29.93R
MISSOULA       LGT RAIN  44  41  89 NW6       29.95R
BUTTE          LGT RAIN  37  35  92 CALM      29.94R
MULLAN PASS    LGT RAIN  36  35  96 CALM      29.91R VSB 1/4
ANACONDA         N/A     41  37  87 SE6       29.93S
DEER LODGE       N/A     43  39  87 CALM      29.93S
EUREKA           N/A     52  43  71 CALM        N/A
HAMILTON         N/A     46  43  87 CALM      29.92S
LIBBY            N/A     48  45  87 CALM      29.93S
PLAINS           N/A     47  43  86 E2        29.94S
$$

MTZ008-052>055-241600-
SOUTHWEST MONTANA

CITY           SKY/WX    TMP DP  RH WIND       PRES   REMARKS
BOZEMAN        LGT RAIN  44  39  82 CALM      29.94R
DILLON         CLOUDY    42  36  79 CALM      29.92R
ENNIS          MOSUNNY   41  36  81 CALM      29.98S
TWIN BRIDGES     N/A     42  37  82 CALM      29.93R
$$

MTZ009-010-012-014-046-048-049-054-241600-
EAST SLOPES AND CENTRAL MONTANA

CITY           SKY/WX    TMP DP  RH WIND       PRES   REMARKS
CUT BANK       PTSUNNY   47  40  76 W6        29.89S
GREAT FALLS    CLOUDY    46  40  79 W6        29.91S
MALMSTROM AFB  CLOUDY    46  42  85 W7        29.92R
HELENA         PTSUNNY   49  41  74 CALM      29.92S
CHOTEAU          N/A     46  39  76 CALM      29.91S
CONRAD           N/A     47  47 100 W3        29.93S
$$

MTZ011-013-016-021-045-047-050-051-241600-
NORTH CENTRAL MONTANA

CITY           SKY/WX    TMP DP  RH WIND       PRES   REMARKS
HAVRE          LGT RAIN  48  44  86 W10       29.88R
LEWISTOWN      PTSUNNY   47  39  74 VRB3      29.91S
N BAR RANCH    CLOUDY    48  37  66 SE6       29.93R
CHINOOK          N/A     48  45  87 W9        29.87R
$$

MTZ017>020-022>027-061-062-241600-
NORTHEAST MONTANA

CITY           SKY/WX    TMP DP  RH WIND       PRES   REMARKS
GLASGOW        PTSUNNY   54  43  66 W13       29.85R
JORDAN           N/A     53  43  68 W12       29.89R
SIDNEY         SUNNY     59  41  51 W6        29.89R
WOLF POINT     MOSUNNY   59  45  59 W15       29.87R
PLENTYWOOD       N/A     54  43  66 SW10      29.84S
POPLAR           N/A     55  43  62 W16       29.87R
SCOBEY           N/A     53  39  59 SW12      29.82S
$$

MTZ028>42-056>058-241600-
SOUTHCENTRAL AND SOUTHEAST MONTANA

CITY           SKY/WX    TMP DP  RH WIND       PRES   REMARKS
BAKER          SUNNY     56  40  55 W7        29.93R
BILLINGS       CLOUDY    50  39  66 NE7       29.92S
LIVINGSTON     CLOUDY    46  37  71 NW5       29.92R
MILES CITY     CLOUDY    53  41  63 VRB3      29.92R
EKALAKA          N/A     56  39  52 CALM      29.92R
FORSYTH          N/A     52  45  76 CALM      29.92S
$$

REGIONAL REPORTS...DAKOTAS

CITY           SKY/WX    TMP DP  RH WIND       PRES   REMARKS
WILLISTON      PTSUNNY   59  42  53 W7        29.88R
MINOT          SUNNY     66  45  46 W5        29.86R
DICKINSON      SUNNY     58  40  51 VRB3      29.89R
BEACH            N/A     57  41  54 SW10      29.93S
CROSBY         PTSUNNY   54  46  76 SW12      29.87R
WATFORD CITY     N/A     59  41  51 SW10      29.89R
BISMARCK       SUNNY     65  46  50 W5        29.89R
GRAND FORKS    MOSUNNY   69  57  65 NW7       29.82R
FARGO          MOSUNNY   75  50  41 SE10      29.82R
BUFFALO SD       N/A     62  40  44 VRB6      29.86R
RAPID CITY     SUNNY     62  39  42 VRB6      29.93R
$$

REGIONAL REPORTS...WYOMING/IDAHO/WASHINGTON

CITY           SKY/WX    TMP DP  RH WIND       PRES   REMARKS
GILLETTE       SUNNY     55  35  47 N3        29.92R
SHERIDAN       SUNNY     53  36  52 E3        29.92S
BUFFALO WY       N/A    N/A N/A N/A MISG      29.93R
CODY           PTSUNNY   45  36  70 E3        29.92R
YELLOWSTONE LA   N/A     41  30  65 VRB3      29.97S
IDAHO FALLS    SUNNY     51  39  63 N7        29.88R
SALMON         CLOUDY    43  36  75 CALM      29.92R
BOISE          PTSUNNY   52  41  66 W7        29.86S
SPOKANE        PTSUNNY   50  45  83 SE7       29.90R
$$

REGIONAL REPORTS...ALBERTA

CITY           SKY/WX    TMP DP  RH WIND       PRES   REMARKS
EDMONTON       CLOUDY    48  41  76 S6        29.87S
CALGARY        MOSUNNY   50  39  66 S5        29.86S
LETHBRIDGE     PTSUNNY   50  43  76 W13       29.88S
MEDICINE HAT   CLOUDY    48  46  93 NW9       29.85S
WATERTON GATE    N/A     46  39  76 SW12        N/A
MILK RIVER       N/A     46  41  81 NW5         N/A
$$

REGIONAL REPORTS...SASKATCHEWAN

CITY           SKY/WX    TMP DP  RH WIND       PRES   REMARKS
SWIFT CURRENT  PTSUNNY   48  46  93 W10       29.78R
REGINA         PTSUNNY   55  45  67 S9        29.78R
SASKATOON      CLOUDY    48  48 100 NE15      29.83R
CYPRESS HILLS    N/A     43  41  93 NW6         N/A
VAL MARIE        N/A     52  46  82 W10         N/A
ROCKGLEN         N/A     52  46  82 W12G18      N/A
ASSINIBOIA       N/A     52  48  87 W5          N/A
$$



USA.gov is the U.S. government's official web portal to all federal, state and local government web resources and services.